Location: Battlefield Observatory
(36.7579°N, 76.2613°W)
Time: 23:25:00
(UTC-05:00)

Hubble Space Telescope - Visible Passes

Search period start: 20 November 2017 00:00
Search period end: 30 November 2017 00:00
Orbit: 537 x 541 km, 28.5° (Epoch: 20 November)

Date Brightness Start Highest point End Pass type
(mag) Time Alt. Az. Time Alt. Az. Time Alt. Az.
20 Nov 3.4 04:10:00 15° SE 04:10:00 15° SE 04:11:15 10° ESE visible
20 Nov 2.5 05:45:31 10° WSW 05:48:57 26° S 05:52:24 10° ESE visible
21 Nov 3.7 04:00:30 13° SE 04:00:30 13° SE 04:01:08 10° ESE visible
21 Nov 2.4 05:35:52 13° SW 05:38:41 25° S 05:42:05 10° SE visible
22 Nov 2.5 05:26:19 17° SW 05:28:22 24° S 05:31:45 10° SE visible
23 Nov 2.5 05:16:45 19° SW 05:18:05 23° S 05:21:22 10° SE visible
24 Nov 2.5 05:07:10 20° SSW 05:07:47 21° S 05:10:55 10° SE visible
25 Nov 2.7 04:57:36 19° S 04:57:36 19° S 05:00:25 10° SSE visible
26 Nov 3.0 04:48:01 16° S 04:48:01 16° S 04:49:50 10° SSE visible
27 Nov 3.4 04:38:28 12° S 04:38:28 12° S 04:39:06 10° SSE visible
